Regional Weather Roundup
Issued by NWS Newport/Morehead, NC

Current Version | Previous Version | Graphics & Text | Print | Product List | Glossary Off
Versions: 1 2 3 4 5 6 7 8 9 10 11 12 13 14 15 16 17 18 19 20 21 22 23 24 25 26 27 28 29 30 31 32 33 34 35 36 37 38 39 40 41 42 43 44 45 46 47 48 49 50

000
ASUS42 KMHX 222125
RWRMHX
WEATHER ROUNDUP FOR EASTERN NORTH CAROLINA
NATIONAL WEATHER SERVICE NEWPORT/MOREHEAD CITY NC
500 PM EDT SUN OCT 22 2017

NOTE: "FAIR" INDICATES FEW OR NO CLOUDS BELOW 12,000 FEET
WITH NO SIGNIFICANT WEATHER AND/OR OBSTRUCTIONS TO VISIBILITY

NCZ015>017-031-032-045>047-102-103-222200-
NORTH COAST

CITY           SKY/WX    TMP DP  RH WIND       PRES   REMARKS
EDENTON        SUNNY     75  63  65 CALM      30.30S
ELIZABETH CITY SUNNY     76  64  66 E10       30.30F
KITTY HAWK     CLEAR     72  65  78 CALM      30.30S
MANTEO         SUNNY    N/A N/A N/A E8        30.31S

$$

NCZ045>047-081-094-103-104-222200-
CENTRAL COAST

CITY           SKY/WX    TMP DP  RH WIND       PRES   REMARKS
FRISCO         SUNNY     78  61  55 E6        30.29F

$$

NCZ095-097-098-100-101-222200-
SOUTHERN COAST

CITY           SKY/WX    TMP DP  RH WIND       PRES   REMARKS
BEAUFORT       MOSUNNY   76  64  66 E7        30.28S
CEDAR ISLAND   NOT AVBL
JACKSONVILLE   SUNNY     78  64  61 SE9       30.26F
PINEY ISLAND   NOT AVBL
WILMINGTON     SUNNY     78  62  57 E9        30.25F


$$

NCZ011>013-027>030-043-044-078>080-089-090>093-098-222200-
COASTAL PLAIN

CITY           SKY/WX    TMP DP  RH WIND       PRES   REMARKS
AHOSKIE        SUNNY     76  55  47 CALM      30.29S
CLINTON        SUNNY     79  62  57 SE3       30.26S
ELIZABETHTOWN  NOT AVBL
GOLDSBORO      MOSUNNY   80  59  47 SE5       30.24F HAZE
GREENVILLE     MOSUNNY   79  61  53 SE7       30.28F
HAVELOCK       MOSUNNY   75  68  78 E5        30.28F
KENANSVILLE    MOSUNNY   77  61  57 CALM      30.26S
KINSTON        MOSUNNY   81  59  47 E3        30.27F
NEW BERN       MOSUNNY   77  64  64 E6        30.29S
RICHLANDS      MOSUNNY   78  64  61 SE7       30.26F
ROCKY MOUNT    SUNNY     79  60  52 SE3       30.27F
WASHINGTON     SUNNY     78  60  53 SE7       30.28F
WHITEVILLE     CLOUDY    79  62  55 E8        30.24S

$$

AMZ130-135-150-152-154-156-158-170-250-252-270-ANZ085-086-088-633-658-670-222200-
MARINE OBSERVATIONS

STATION/POSITION TIME  TEMP    WIND        PRES    WAVE   SWELL
                       AIR SEA DIR/SP/G            HT/PER HT/PER
                 (UTC) (F)     (DEG/KT/KT) (MB)    (FT/S) (FT/S)
CHESAPEAKE LIGHT NOT AVBL
64 E VA BEACH    2050   70 70   50/  6/ 12 1027.3    3/ 8   3/ 8
DUCK             2100   71 71   60/ 10/ 12 1026.0
2 E DUCK         2100      70                N/A     2/ 9
OREGON INLET     2100   72 71   40/  9/ 11 1025.8
13E OREGON INLT  2048      74                N/A     3/ 8   2/ 8
HATTERAS CG      2100   77 73  110/  4/  9 1025.8
DIAMOND BUOY     2050   76 81  100/  4/  8 1025.6    3/ 9   3/ 9
CAPE LOOKOUT     2100   76     110/  7/  7 1024.9
BEAUFORT LAB     2100   76 73  100/  7/  9 1025.4
30 SE NEW RVR IN 2108   77     110/  8/ 12 1024.6
30 SE NEW RVR IN NOT AVBL
27 SE WRIGHTSVLE 2108   77 76  120/ 10/ 14 1024.5
5 SE WRIGHTSVLE  2108   75 74   90/ 10/ 14 1024.3
225 S CAPE HAT   2050   77 80   90/ 14/ 16 1023.9    4/ 7   3/ 7
41 SE CHARLESTON 2110   76 79   90/ 19/ 23 1021.6

$$




USA.gov is the U.S. government's official web portal to all federal, state and local government web resources and services.